FW3855 Weather Reports


time (UTC)temp
C
wind
direction
speed
KPH
gust
KPH
rain 1hr
cm
rain 24hr
cm
rain mn
cm
humidity
%
barometer
mb
20260906040047 25 169 6.4 12.9 0.00 0.00 0.00 27 1019.6
20260906035547 25 150 4.8 12.9 0.00 0.00 0.00 26 1019.4
20260906035045 25 131 3.2 9.7 0.00 0.00 0.00 26 1019.4
20260906034047 25 103 4.8 11.3 0.00 0.00 0.00 26 1019.4
20260906033543 25 172 4.8 11.3 0.00 0.00 0.00 26 1019.3
20260906033045 25 166 4.8 12.9 0.00 0.00 0.00 26 1019.3
20260906032544 25 138 4.8 12.9 0.00 0.00 0.00 25 1019.3
20260906032041 25 122 3.2 9.7 0.00 0.00 0.00 25 1019.3
20260906031542 25 152 3.2 9.7 0.00 0.00 0.00 25 1019.2
20260906031042 25 185 4.8 11.3 0.00 0.00 0.00 25 1019.2
20260906030544 25 202 4.8 12.9 0.00 0.00 0.00 25 1019.2
20260906030042 25 159 4.8 12.9 0.00 0.00 0.00 25 1019.1
20260906025542 25 207 4.8 12.9 0.00 0.00 0.00 25 1019.0
20260906025042 25 104 4.8 12.9 0.00 0.00 0.00 25 1019.0
20260906024543 25 186 4.8 12.9 0.00 0.00 0.00 25 1018.9
20260906023543 25 162 1.6 6.4 0.00 0.00 0.00 25 1018.9
20260906022541 25 219 1.6 9.7 0.00 0.00 0.00 24 1018.8
20260906022042 26 161 1.6 9.7 0.00 0.00 0.00 24 1018.8
20260906021535 26 164 3.2 9.7 0.00 0.00 0.00 24 1018.8
20260906021030 26 232 3.2 14.5 0.00 0.00 0.00 23 1018.6
20260906020529 26 214 4.8 16.1 0.00 0.00 0.00 23 1018.6
20260906015526 26 134 6.4 17.7 0.00 0.00 0.00 23 1018.8
20260906014524 26 96 3.2 12.9 0.00 0.00 0.00 22 1018.6
20260906014027 27 197 4.8 12.9 0.00 0.00 0.00 22 1018.6
20260906013524 27 195 3.2 12.9 0.00 0.00 0.00 21 1018.6
20260906013024 27 98 1.6 11.3 0.00 0.00 0.00 21 1018.6
20260906012021 28 155 6.4 19.3 0.00 0.00 0.00 19 1018.8
20260906011020 28 203 6.4 17.7 0.00 0.00 0.00 19 1018.8
20260906010519 28 146 9.7 25.7 0.00 0.00 0.00 19 1018.8
20260906005021 30 187 6.4 16.1 0.00 0.00 0.00 17 1018.8
20260906004520 30 81 4.8 14.5 0.00 0.00 0.00 17 1018.6
20260906004013 30 163 6.4 20.9 0.00 0.00 0.00 18 1018.6
20260906003508 30 208 4.8 20.9 0.00 0.00 0.00 17 1018.8
20260906003002 30 134 4.8 16.1 0.00 0.00 0.00 17 1018.6
20260906002456 30 255 6.4 16.1 0.00 0.00 0.00 17 1018.6
20260906001950 30 260 8.0 19.3 0.00 0.00 0.00 17 1018.9
20260906001444 30 166 8.0 20.9 0.00 0.00 0.00 17 1018.8
20260905235420 31 225 8.0 20.9 0.00 0.00 0.00 17 1018.5
20260905234914 30 103 8.0 20.9 0.00 0.00 0.00 16 1018.4
20260905233903 30 115 4.8 17.7 0.00 0.00 0.00 17 1018.9
20260905233357 30 274 4.8 17.7 0.00 0.00 0.00 17 1018.9
20260905232850 30 91 4.8 16.1 0.00 0.00 0.00 17 1018.8
20260905232344 29 258 6.4 19.3 0.00 0.00 0.00 18 1018.8
20260905231838 29 179 6.4 19.3 0.00 0.00 0.00 17 1018.9
20260905231332 30 268 6.4 20.9 0.00 0.00 0.00 17 1018.8
20260905230826 30 292 6.4 20.9 0.00 0.00 0.00 17 1018.6
20260905230319 30 215 6.4 17.7 0.00 0.00 0.00 17 1018.6
20260905225814 30 142 4.8 16.1 0.00 0.00 0.00 16 1018.6
20260905225308 30 226 6.4 20.9 0.00 0.00 0.00 17 1018.5
20260905224803 30 310 9.7 22.5 0.00 0.00 0.00 18 1018.5
20260905224256 30 283 11.3 22.5 0.00 0.00 0.00 16 1018.6
20260905223750 30 264 9.7 22.5 0.00 0.00 0.00 16 1018.8
20260905223244 31 250 6.4 17.7 0.00 0.00 0.00 15 1018.8
20260905222232 31 281 6.4 17.7 0.00 0.00 0.00 15 1019.0
20260905221726 31 238 9.7 25.7 0.00 0.00 0.00 16 1018.9
20260905221221 30 304 12.9 27.4 0.00 0.00 0.00 15 1018.6
20260905220714 31 295 11.3 30.6 0.00 0.00 0.00 15 1018.6
20260905220208 31 239 8.0 30.6 0.00 0.00 0.00 15 1018.8
20260905215156 31 238 9.7 29.0 0.00 0.00 0.00 15 1018.9
20260905214651 30 319 11.3 22.5 0.00 0.00 0.00 15 1018.6
20260905214144 30 223 11.3 24.1 0.00 0.00 0.00 15 1019.2
20260905213638 31 229 8.0 25.7 0.00 0.00 0.00 14 1019.3
20260905213132 31 290 6.4 25.7 0.00 0.00 0.00 15 1019.3
20260905212626 31 278 9.7 25.7 0.00 0.00 0.00 15 1019.3
20260905212121 30 250 12.9 33.8 0.00 0.00 0.00 15 1019.3
20260905211614 31 190 9.7 33.8 0.00 0.00 0.00 15 1019.1
20260905211108 31 225 8.0 22.5 0.00 0.00 0.00 14 1019.2
20260905210602 31 248 6.4 20.9 0.00 0.00 0.00 14 1019.1
20260905205550 31 255 8.0 22.5 0.00 0.00 0.00 15 1019.3
20260905204538 30 257 9.7 29.0 0.00 0.00 0.00 15 1019.4
20260905204032 30 193 8.0 27.4 0.00 0.00 0.00 15 1019.6
20260905203526 30 321 8.0 20.9 0.00 0.00 0.00 15 1019.4
20260905203020 29 240 9.7 25.7 0.00 0.00 0.00 17 1019.7
20260905202515 30 157 11.3 29.0 0.00 0.00 0.00 16 1019.8
20260905202008 30 88 8.0 29.0 0.00 0.00 0.00 15 1019.7
20260905201503 31 253 8.0 25.7 0.00 0.00 0.00 15 1019.6
20260905200956 30 111 9.7 22.5 0.00 0.00 0.00 15 1019.7
20260905195944 30 214 9.7 25.7 0.00 0.00 0.00 16 1019.8
20260905195438 29 103 9.7 25.7 0.00 0.00 0.00 17 1020.0
20260905194933 30 203 6.4 20.9 0.00 0.00 0.00 16 1020.0
20260905194426 30 87 4.8 19.3 0.00 0.00 0.00 16 1019.9
20260905193414 30 217 4.8 17.7 0.00 0.00 0.00 16 1020.0
20260905192908 30 229 6.4 29.0 0.00 0.00 0.00 16 1020.0
20260905192402 30 177 8.0 29.0 0.00 0.00 0.00 16 1020.0
20260905191856 31 234 8.0 29.0 0.00 0.00 0.00 15 1020.2
20260905191351 30 270 8.0 22.5 0.00 0.00 0.00 15 1020.0
20260905190844 30 232 8.0 22.5 0.00 0.00 0.00 15 1020.0
20260905190338 30 188 8.0 25.7 0.00 0.00 0.00 15 1020.2
20260905185832 30 143 6.4 25.7 0.00 0.00 0.00 15 1020.2
20260905185326 30 234 8.0 27.4 0.00 0.00 0.00 16 1020.3
20260905184820 30 124 9.7 27.4 0.00 0.00 0.00 16 1020.3
20260905184314 30 211 8.0 20.9 0.00 0.00 0.00 15 1020.2
20260905183808 29 231 8.0 20.9 0.00 0.00 0.00 15 1020.3
20260905183309 29 181 8.0 27.4 0.00 0.00 0.00 15 1020.5
20260905181809 29 72 8.0 29.0 0.00 0.00 0.00 15 1020.5
20260905181311 29 86 6.4 29.0 0.00 0.00 0.00 15 1020.6
20260905180809 29 334 4.8 16.1 0.00 0.00 0.00 15 1020.5
20260905180310 29 156 4.8 17.7 0.00 0.00 0.00 15 1020.5
20260905175812 28 56 6.4 19.3 0.00 0.00 0.00 15 1020.6
20260905175312 28 108 8.0 27.4 0.00 0.00 0.00 15 1020.6
20260905174806 28 167 9.7 27.4 0.00 0.00 0.00 17 1020.5
20260905174303 28 124 9.7 22.5 0.00 0.00 0.00 16 1020.5
20260905173803 28 93 9.7 20.9 0.00 0.00 0.00 16 1020.5
20260905173304 28 173 9.7 22.5 0.00 0.00 0.00 16 1020.6
20260905172804 28 158 9.7 22.5 0.00 0.00 0.00 16 1020.6
20260905172307 28 158 9.7 22.5 0.00 0.00 0.00 16 1020.5
20260905171805 28 165 9.7 22.5 0.00 0.00 0.00 16 1020.3
20260905171306 28 196 8.0 19.3 0.00 0.00 0.00 16 1020.5
20260905170805 28 169 8.0 19.3 0.00 0.00 0.00 15 1020.3
20260905170306 27 198 8.0 17.7 0.00 0.00 0.00 15 1020.3
20260905165803 27 98 8.0 17.7 0.00 0.00 0.00 16 1020.3
20260905165306 27 93 9.7 20.9 0.00 0.00 0.00 15 1020.2
20260905164803 27 179 9.7 25.7 0.00 0.00 0.00 15 1020.2
20260905164302 27 157 8.0 25.7 0.00 0.00 0.00 15 1020.2
20260905163804 27 114 8.0 29.0 0.00 0.00 0.00 15 1020.2
20260905163302 26 179 8.0 29.0 0.00 0.00 0.00 14 1020.2
20260905162804 27 82 4.8 17.7 0.00 0.00 0.00 15 1020.1
20260905162306 27 125 4.8 17.7 0.00 0.00 0.00 14 1020.1
20260905161804 26 284 6.4 19.3 0.00 0.00 0.00 16 1020.0
20260905161302 26 124 6.4 19.3 0.00 0.00 0.00 16 1019.9
20260905160803 26 30 6.4 19.3 0.00 0.00 0.00 17 1020.0
20260905155801 26 140 6.4 16.1 0.00 0.00 0.00 18 1020.0
20260905155300 26 162 6.4 20.9 0.00 0.00 0.00 19 1019.9
20260905154258 25 137 8.0 24.1 0.00 0.00 0.00 20 1019.9
20260905153756 25 206 8.0 24.1 0.00 0.00 0.00 20 1019.9
20260905153300 25 163 6.4 17.7 0.00 0.00 0.00 19 1019.9
20260905152800 25 122 8.0 17.7 0.00 0.00 0.00 18 1019.9
20260905151242 25 167 8.0 24.1 0.00 0.00 0.00 17 1019.9
20260905150736 25 203 9.7 20.9 0.00 0.00 0.00 17 1020.0
20260905145724 24 179 9.7 22.5 0.00 0.00 0.00 16 1019.9
20260905144713 24 142 6.4 16.1 0.00 0.00 0.00 18 1019.9
20260905144212 24 138 8.0 19.3 0.00 0.00 0.00 18 1019.8
20260905143712 23 256 9.7 19.3 0.00 0.00 0.00 18 1019.7
20260905143214 23 180 8.0 19.3 0.00 0.00 0.00 17 1019.7
20260905142713 23 147 8.0 20.9 0.00 0.00 0.00 16 1019.6
20260905142213 23 204 8.0 20.9 0.00 0.00 0.00 15 1019.7
20260905141713 23 150 8.0 20.9 0.00 0.00 0.00 15 1019.6
20260905141212 23 184 8.0 22.5 0.00 0.00 0.00 15 1019.6
20260905140712 23 199 9.7 25.7 0.00 0.00 0.00 14 1019.4
20260905140214 22 160 9.7 25.7 0.00 0.00 0.00 13 1019.4
20260905135713 22 203 6.4 22.5 0.00 0.00 0.00 13 1019.4
20260905135212 22 179 4.8 22.5 0.00 0.00 0.00 14 1019.4
20260905134719 -17 0.0 0.0 0.00 0.00 0.00 1019.4
20260905134215 -17 0.0 0.0 0.00 0.00 0.00 1019.2
20260905133708 -17 0.0 0.0 0.00 0.00 0.00 1019.1
20260905133121 -17 0.0 0.0 0.00 0.00 0.00 1019.1
20260905132613 -17 0.0 0.0 0.00 0.00 0.00 1019.1
20260905131010 -17 0.0 0.0 0.00 0.00 0.00 1018.9
20260905130509 -17 0.0 0.0 0.00 0.00 0.00 1019.0
20260905125915 -17 0.0 0.0 0.00 0.00 0.00 1018.9
20260905125413 -17 0.0 0.0 0.00 0.00 0.00 1018.9
20260905124913 -17 0.0 0.0 0.00 0.00 0.00 1018.8
20260905124410 -17 0.0 0.0 0.00 0.00 0.00 1018.6
20260905123311 -17 0.0 0.0 0.00 0.00 0.00 1018.6
20260905122812 -17 0.0 0.0 0.00 0.00 0.00 1018.5
20260905122306 -17 0.0 0.0 0.00 0.00 0.00 1018.5
20260905121713 -17 212 4.8 9.7 0.00 0.00 0.00 1018.5
20260905121205 22 212 4.8 11.3 0.00 0.00 0.00 14 1018.4
20260905120656 22 212 4.8 19.3 0.00 0.00 0.00 14 1018.4
20260905120150 22 172 4.8 19.3 0.00 0.00 0.00 14 1018.5
20260905115644 22 193 4.8 12.9 0.00 0.00 0.00 14 1018.5
20260905115137 22 169 4.8 12.9 0.00 0.00 0.00 15 1018.5
20260905114631 22 207 4.8 17.7 0.00 0.00 0.00 15 1018.5
20260905114126 22 155 4.8 17.7 0.00 0.00 0.00 15 1018.5
20260905113619 22 156 4.8 12.9 0.00 0.00 0.00 16 1018.5
20260905113113 23 188 4.8 14.5 0.00 0.00 0.00 17 1018.4
20260905112607 23 185 6.4 19.3 0.00 0.00 0.00 16 1018.3
20260905112101 23 159 8.0 19.3 0.00 0.00 0.00 16 1018.4
20260905111556 23 133 6.4 24.1 0.00 0.00 0.00 16 1018.4
20260905111049 23 180 6.4 24.1 0.00 0.00 0.00 16 1018.3
20260905110542 23 136 6.4 16.1 0.00 0.00 0.00 16 1018.2
20260905110037 23 176 8.0 24.1 0.00 0.00 0.00 16 1018.2
20260905105531 23 105 8.0 24.1 0.00 0.00 0.00 16 1018.2
20260905105025 23 174 8.0 17.7 0.00 0.00 0.00 16 1018.2
20260905104519 23 169 6.4 17.7 0.00 0.00 0.00 16 1018.2
20260905104013 23 165 4.8 17.7 0.00 0.00 0.00 16 1018.2
20260905103507 23 128 4.8 16.1 0.00 0.00 0.00 17 1018.2
20260905103001 23 122 4.8 14.5 0.00 0.00 0.00 16 1018.3
20260905102455 23 207 4.8 17.7 0.00 0.00 0.00 15 1018.2
20260905101455 23 172 6.4 19.3 0.00 0.00 0.00 15 1018.3
20260905100958 23 210 6.4 19.3 0.00 0.00 0.00 13 1018.3
20260905100455 23 153 6.4 20.9 0.00 0.00 0.00 13 1018.3
20260905095951 23 152 8.0 20.9 0.00 0.00 0.00 13 1018.3
20260905095451 23 148 8.0 24.1 0.00 0.00 0.00 13 1018.2
20260905094951 23 207 8.0 24.1 0.00 0.00 0.00 13 1018.2
20260905094452 23 82 4.8 17.7 0.00 0.00 0.00 12 1018.3
20260905093448 23 256 6.4 19.3 0.00 0.00 0.00 13 1018.2
20260905092949 23 113 6.4 17.7 0.00 0.00 0.00 12 1018.1
20260905092449 23 140 6.4 17.7 0.00 0.00 0.00 13 1018.1
20260905091945 23 162 3.2 17.7 0.00 0.00 0.00 13 1018.2
20260905091446 23 153 4.8 16.1 0.00 0.00 0.00 11 1018.2
20260905090947 23 125 6.4 19.3 0.00 0.00 0.00 10 1018.1
20260905090446 23 98 6.4 19.3 0.00 0.00 0.00 12 1018.1
20260905085947 23 188 6.4 16.1 0.00 0.00 0.00 12 1018.1
20260905085445 23 195 6.4 19.3 0.00 0.00 0.00 12 1018.1
20260905084939 23 184 4.8 19.3 0.00 0.00 0.00 12 1018.1
20260905084434 23 195 3.2 12.9 0.00 0.00 0.00 11 1018.1
20260905083932 23 210 4.8 14.5 0.00 0.00 0.00 11 1018.1
20260905083431 23 120 8.0 22.5 0.00 0.00 0.00 11 1018.3
20260905082933 23 194 9.7 22.5 0.00 0.00 0.00 10 1018.3
20260905082432 23 153 9.7 22.5 0.00 0.00 0.00 10 1018.3
20260905081433 23 208 6.4 17.7 0.00 0.00 0.00 9 1018.4
20260905080932 23 160 6.4 22.5 0.00 0.00 0.00 9 1018.5
20260905080432 23 179 9.7 22.5 0.00 0.00 0.00 9 1018.4
20260905075933 23 156 8.0 20.9 0.00 0.00 0.00 9 1018.4
20260905075431 23 182 6.4 20.9 0.00 0.00 0.00 9 1018.4
20260905074933 23 190 6.4 17.7 0.00 0.00 0.00 9 1018.5
20260905074427 23 201 4.8 16.1 0.00 0.00 0.00 9 1018.5
20260905073928 23 195 6.4 19.3 0.00 0.00 0.00 9 1018.6
20260905073427 23 173 6.4 19.3 0.00 0.00 0.00 8 1018.5
20260905072927 23 172 3.2 14.5 0.00 0.00 0.00 8 1018.5
20260905072429 23 146 4.8 14.5 0.00 0.00 0.00 8 1018.5
20260905071928 23 214 8.0 19.3 0.00 0.00 0.00 8 1018.5
20260905070929 23 148 4.8 14.5 0.00 0.00 0.00 8 1018.5
20260905070429 23 217 4.8 11.3 0.00 0.00 0.00 8 1018.4
20260905065924 23 158 6.4 12.9 0.00 0.00 0.00 7 1018.4
20260905065424 23 185 6.4 12.9 0.00 0.00 0.00 7 1018.4
20260905064924 23 155 4.8 11.3 0.00 0.00 0.00 8 1018.3
20260905063925 23 151 3.2 12.9 0.00 0.00 0.00 7 1018.2
20260905063425 23 183 3.2 12.9 0.00 0.00 0.00 7 1018.2
20260905061925 23 216 8.0 19.3 0.00 0.00 0.00 6 1018.1
20260905060919 23 139 8.0 17.7 0.00 0.00 0.00 6 1018.0
20260905060421 23 215 8.0 17.7 0.00 0.00 0.00 6 1018.1
20260905055421 24 186 8.0 17.7 0.00 0.00 0.00 6 1018.0
20260905054919 24 226 6.4 17.7 0.00 0.00 0.00 6 1018.0
20260905054418 24 120 8.0 19.3 0.00 0.00 0.00 5 1017.8
20260905053918 24 182 9.7 19.3 0.00 0.00 0.00 5 1018.0
20260905053418 24 128 12.9 25.7 0.00 0.00 0.00 5 1017.8
20260905052918 25 235 12.9 30.6 0.00 0.00 0.00 5 1018.0
20260905052422 25 198 14.5 30.6 0.00 0.00 0.00 5 1017.8
20260905051921 25 219 14.5 30.6 0.00 0.00 0.00 5 1017.8
20260905051411 25 205 12.9 30.6 0.00 0.00 0.00 6 1017.7
20260905050910 25 140 12.9 30.6 0.00 0.00 0.00 5 1017.8
20260905045909 25 136 12.9 30.6 0.00 0.00 0.00 7 1017.7
20260905045408 25 151 12.9 29.0 0.00 0.00 0.00 7 1017.7
20260905044910 25 196 9.7 27.4 0.00 0.00 0.00 8 1017.7
20260905044407 25 252 9.7 27.4 0.00 0.00 0.00 9 1017.6
20260905043906 25 162 11.3 25.7 0.00 0.00 0.00 9 1017.6
20260905043406 25 180 12.9 25.7 0.00 0.00 0.00 10 1017.6
20260905042907 25 197 14.5 35.4 0.00 0.00 0.00 11 1017.6
20260905042407 25 202 12.9 35.4 0.00 0.00 0.00 12 1017.5
20260905041905 25 187 9.7 29.0 0.00 0.00 0.00 13 1017.5
20260905040906 25 198 8.0 19.3 0.00 0.00 0.00 16 1017.4
20260905040414 25 213 6.4 17.7 0.00 0.00 0.00 15 1017.4